EZY74Z EGKK-LEBL

Flight info

Callsign EZY74Z
Flight time N/A
Altitude 35000
Route SFD4Z SFD Y47 BENBO UY47 DRAKE L151 SITET UN859 SOPIL/N0450F370 DCT BALAN DCT EVPOK DCT NARAK DCT GAI DCT LOMRA DCT ROCAN DCT PUMAL PUMAL2W
Aircraft A20N/M-SDE2E3FGHIRWXY/LB1

Departure

Time 2026-05-06 17:01
Airport London Gatwick Airport (EGKK)

Arrival

Time N/A
Airport Josep Tarradellas Barcelona-El Prat Airport (LEBL)
Time Latitude Longitude Altitude Speed Heading
2026-05-06 16:37 51.15817 -0.17954 205 ft 0 kts 78°
2026-05-06 16:47 51.15815 -0.17970 210 ft 2 kts 78°
2026-05-06 16:47 51.15811 -0.17996 204 ft 2 kts 78°
2026-05-06 16:47 51.15808 -0.18022 210 ft 2 kts 79°
2026-05-06 16:47 51.15806 -0.18048 216 ft 2 kts 86°
2026-05-06 16:48 51.15809 -0.18072 213 ft 2 kts 172°
2026-05-06 16:48 51.15812 -0.18073 211 ft 0 kts 174°
2026-05-06 16:49 51.15811 -0.18073 212 ft 1 kts 174°
2026-05-06 16:49 51.15793 -0.18069 210 ft 5 kts 167°
2026-05-06 16:50 51.15749 -0.18050 204 ft 8 kts 166°
2026-05-06 16:50 51.15690 -0.18070 207 ft 10 kts 241°
2026-05-06 16:50 51.15667 -0.18196 208 ft 13 kts 256°
2026-05-06 16:50 51.15655 -0.18283 211 ft 13 kts 258°
2026-05-06 16:51 51.15626 -0.18493 208 ft 17 kts 257°
2026-05-06 16:51 51.15601 -0.18675 211 ft 16 kts 258°
2026-05-06 16:51 51.15582 -0.18792 210 ft 17 kts 240°
2026-05-06 16:51 51.15474 -0.18806 207 ft 18 kts 167°
2026-05-06 16:52 51.15349 -0.18762 204 ft 16 kts 168°
2026-05-06 16:52 51.15251 -0.18728 210 ft 8 kts 167°
2026-05-06 16:52 51.15228 -0.18720 204 ft 1 kts 167°
2026-05-06 16:52 51.15205 -0.18712 209 ft 6 kts 168°
2026-05-06 16:53 51.15153 -0.18707 209 ft 9 kts 200°
2026-05-06 16:53 51.15124 -0.18808 208 ft 12 kts 259°
2026-05-06 16:53 51.15102 -0.18953 210 ft 15 kts 257°
2026-05-06 16:53 51.15078 -0.19128 205 ft 18 kts 257°
2026-05-06 16:54 51.15012 -0.19264 206 ft 16 kts 178°
2026-05-06 16:54 51.14968 -0.19376 210 ft 12 kts 261°
2026-05-06 16:54 51.14934 -0.19516 207 ft 15 kts 259°
2026-05-06 16:54 51.14911 -0.19694 216 ft 17 kts 251°
2026-05-06 16:55 51.14880 -0.19888 214 ft 21 kts 257°
2026-05-06 16:55 51.14848 -0.20128 206 ft 23 kts 258°
2026-05-06 16:55 51.14813 -0.20398 208 ft 26 kts 255°
2026-05-06 16:55 51.14773 -0.20680 204 ft 27 kts 258°
2026-05-06 16:56 51.14736 -0.20939 209 ft 21 kts 256°
2026-05-06 16:56 51.14704 -0.21165 205 ft 20 kts 256°
2026-05-06 16:56 51.14695 -0.21225 209 ft 0 kts 257°
2026-05-06 16:58 51.14689 -0.21269 210 ft 9 kts 257°
2026-05-06 16:58 51.14666 -0.21330 213 ft 0 kts 221°
2026-05-06 16:58 51.14656 -0.21334 209 ft 2 kts 195°
2026-05-06 16:59 51.14630 -0.21336 204 ft 6 kts 177°
2026-05-06 16:59 51.14578 -0.21314 209 ft 10 kts 163°
2026-05-06 16:59 51.14527 -0.21238 211 ft 11 kts 115°
2026-05-06 16:59 51.14528 -0.21111 213 ft 13 kts 77°
2026-05-06 17:00 51.14548 -0.20970 207 ft 13 kts 78°
2026-05-06 17:00 51.14552 -0.20943 208 ft 2 kts 78°
2026-05-06 17:00 51.14569 -0.20818 214 ft 30 kts 77°
2026-05-06 17:00 51.14666 -0.20124 210 ft 98 kts 78°
2026-05-06 17:01 51.14861 -0.18786 247 ft 148 kts 76°
2026-05-06 17:01 51.15072 -0.17169 846 ft 147 kts 76°
2026-05-06 17:01 51.15256 -0.15837 1534 ft 145 kts 76°
2026-05-06 17:01 51.15483 -0.14243 2189 ft 152 kts 76°
2026-05-06 17:02 51.15729 -0.12498 2635 ft 171 kts 76°
2026-05-06 17:02 51.15995 -0.10542 3149 ft 191 kts 76°
2026-05-06 17:02 51.16032 -0.08260 3581 ft 220 kts 102°
2026-05-06 17:02 51.15226 -0.06080 4274 ft 239 kts 136°
2026-05-06 17:03 51.13761 -0.04841 5156 ft 246 kts 165°
2026-05-06 17:03 51.12030 -0.04242 5830 ft 264 kts 169°
2026-05-06 17:03 51.10138 -0.03685 6398 ft 283 kts 170°
2026-05-06 17:03 51.08201 -0.02928 7287 ft 287 kts 164°
2026-05-06 17:04 51.06277 -0.02047 8230 ft 290 kts 164°
2026-05-06 17:04 51.04329 -0.01137 9204 ft 293 kts 163°
2026-05-06 17:04 51.02371 -0.00213 10141 ft 294 kts 163°
2026-05-06 17:04 51.00403 0.00719 11016 ft 297 kts 163°
2026-05-06 17:05 50.98436 0.01650 11871 ft 299 kts 162°
2026-05-06 17:05 50.96411 0.02606 12753 ft 302 kts 162°
2026-05-06 17:05 50.94390 0.03560 13598 ft 305 kts 162°
2026-05-06 17:05 50.92343 0.04527 14346 ft 308 kts 162°
2026-05-06 17:06 50.90269 0.05507 15018 ft 313 kts 162°
2026-05-06 17:06 50.88168 0.06500 15716 ft 318 kts 162°
2026-05-06 17:06 50.86034 0.07506 16415 ft 322 kts 162°
2026-05-06 17:06 50.83871 0.08523 17089 ft 326 kts 162°
2026-05-06 17:07 50.81681 0.09552 17775 ft 331 kts 162°
2026-05-06 17:07 50.79433 0.10606 18430 ft 335 kts 162°
2026-05-06 17:07 50.77195 0.11496 19035 ft 338 kts 171°
2026-05-06 17:07 50.74841 0.11624 19644 ft 341 kts 185°
2026-05-06 17:08 50.72498 0.10933 20181 ft 347 kts 193°
2026-05-06 17:08 50.70094 0.10036 20356 ft 364 kts 193°
2026-05-06 17:08 50.67573 0.09108 20528 ft 380 kts 193°
2026-05-06 17:08 50.64876 0.08125 20699 ft 395 kts 193°
2026-05-06 17:09 50.62242 0.07172 21127 ft 402 kts 193°
2026-05-06 17:09 50.59510 0.06185 21738 ft 404 kts 193°
2026-05-06 17:09 50.56751 0.05191 22270 ft 408 kts 193°
2026-05-06 17:09 50.53935 0.04178 22867 ft 411 kts 193°
2026-05-06 17:10 50.51141 0.03174 23415 ft 414 kts 193°
2026-05-06 17:10 50.48322 0.02163 23934 ft 416 kts 193°
2026-05-06 17:10 50.45501 0.01151 24506 ft 416 kts 193°
2026-05-06 17:10 50.42681 0.00140 25024 ft 416 kts 192°
2026-05-06 17:11 50.39847 -0.00876 25542 ft 417 kts 192°
2026-05-06 17:11 50.37014 -0.01890 26043 ft 418 kts 192°
2026-05-06 17:11 50.34169 -0.02907 26507 ft 420 kts 192°
2026-05-06 17:11 50.31319 -0.03924 26974 ft 421 kts 192°
2026-05-06 17:12 50.28447 -0.04948 27422 ft 423 kts 192°
2026-05-06 17:12 50.25579 -0.05969 27865 ft 424 kts 192°
2026-05-06 17:12 50.22657 -0.06577 28234 ft 425 kts 180°
2026-05-06 17:12 50.19707 -0.06196 28609 ft 426 kts 168°
2026-05-06 17:13 50.16875 -0.04835 28969 ft 427 kts 156°
2026-05-06 17:13 50.14160 -0.02932 29339 ft 429 kts 155°
2026-05-06 17:13 50.11432 -0.01029 29706 ft 431 kts 157°
2026-05-06 17:13 50.08611 0.00551 30044 ft 433 kts 163°
2026-05-06 17:14 50.05688 0.01728 30347 ft 435 kts 165°
2026-05-06 17:14 50.02747 0.02873 30641 ft 437 kts 165°
2026-05-06 17:14 49.99792 0.04027 30937 ft 439 kts 165°
2026-05-06 17:14 49.96828 0.05189 31280 ft 440 kts 165°
2026-05-06 17:15 49.93866 0.06351 31672 ft 439 kts 165°
2026-05-06 17:15 49.90914 0.07510 32074 ft 437 kts 165°
2026-05-06 17:15 49.88914 0.08294 32343 ft 437 kts 165°
2026-05-06 17:15 49.86004 0.09434 32715 ft 436 kts 165°
2026-05-06 17:16 49.83053 0.10589 33095 ft 435 kts 165°
2026-05-06 17:16 49.80121 0.11735 33447 ft 435 kts 165°
2026-05-06 17:16 49.77184 0.12881 33777 ft 435 kts 165°
2026-05-06 17:16 49.74215 0.14038 34105 ft 434 kts 165°
2026-05-06 17:17 49.71290 0.15177 34360 ft 434 kts 165°
2026-05-06 17:17 49.68361 0.16317 34602 ft 434 kts 165°
2026-05-06 17:17 49.65429 0.17475 34843 ft 435 kts 165°
2026-05-06 17:17 49.62504 0.18658 34979 ft 435 kts 164°
2026-05-06 17:18 49.59582 0.19844 34991 ft 434 kts 164°
2026-05-06 17:18 49.53739 0.22205 34997 ft 434 kts 164°
2026-05-06 17:19 49.47887 0.24554 34993 ft 435 kts 164°
2026-05-06 17:19 49.42015 0.26904 34966 ft 436 kts 164°
2026-05-06 17:20 49.36136 0.29251 34966 ft 437 kts 164°
2026-05-06 17:20 49.30234 0.31603 34962 ft 439 kts 164°
2026-05-06 17:21 49.24340 0.34077 34966 ft 440 kts 163°
2026-05-06 17:21 49.18446 0.36585 34957 ft 439 kts 163°
2026-05-06 17:22 49.12555 0.39067 34955 ft 440 kts 163°
2026-05-06 17:22 49.06644 0.41551 34974 ft 446 kts 165°
2026-05-06 17:23 49.00567 0.44099 34951 ft 458 kts 165°
2026-05-06 17:23 48.94426 0.46659 34950 ft 456 kts 165°
2026-05-06 17:24 48.88295 0.49208 34952 ft 457 kts 165°
2026-05-06 17:24 48.82154 0.51756 34951 ft 457 kts 165°
2026-05-06 17:25 48.76020 0.54268 34956 ft 457 kts 166°
2026-05-06 17:25 48.69826 0.56680 34952 ft 457 kts 166°
2026-05-06 17:26 48.63672 0.59072 34945 ft 457 kts 166°
2026-05-06 17:26 48.57523 0.61468 34954 ft 457 kts 166°
2026-05-06 17:27 48.51410 0.63849 34956 ft 457 kts 166°
2026-05-06 17:27 48.45270 0.66337 34954 ft 456 kts 165°
2026-05-06 17:28 48.39145 0.68844 34957 ft 456 kts 165°
2026-05-06 17:28 48.32973 0.71349 34953 ft 456 kts 165°
2026-05-06 17:29 48.26847 0.73825 34949 ft 456 kts 165°
2026-05-06 17:29 48.20721 0.76269 34938 ft 455 kts 166°
2026-05-06 17:30 48.14592 0.78671 34940 ft 455 kts 166°
2026-05-06 17:30 48.08460 0.81073 34937 ft 455 kts 166°
2026-05-06 17:31 48.02332 0.83471 34930 ft 455 kts 166°
2026-05-06 17:31 47.96204 0.85865 34931 ft 455 kts 166°
2026-05-06 17:32 47.90080 0.88251 34924 ft 455 kts 166°
2026-05-06 17:32 47.83951 0.90633 34926 ft 455 kts 166°
2026-05-06 17:33 47.77862 0.92994 34933 ft 455 kts 166°
2026-05-06 17:33 47.71730 0.95366 34925 ft 456 kts 166°
2026-05-06 17:34 47.65597 0.97732 34925 ft 456 kts 166°
2026-05-06 17:34 47.59461 1.00094 34930 ft 456 kts 166°
2026-05-06 17:35 47.53306 1.02457 34927 ft 456 kts 166°
2026-05-06 17:35 47.47128 1.04824 34939 ft 457 kts 166°
2026-05-06 17:36 47.40898 1.06316 34934 ft 455 kts 178°
2026-05-06 17:36 47.37738 1.06379 34938 ft 454 kts 182°
2026-05-06 17:36 47.31419 1.06184 34936 ft 454 kts 182°
2026-05-06 17:37 47.25101 1.06024 34934 ft 454 kts 182°
2026-05-06 17:37 47.18785 1.05876 34935 ft 454 kts 182°
2026-05-06 17:38 47.12473 1.05729 34933 ft 454 kts 182°
2026-05-06 17:38 47.06164 1.05583 34936 ft 453 kts 182°
2026-05-06 17:39 46.99814 1.05415 34934 ft 453 kts 182°
2026-05-06 17:39 46.93505 1.05130 34936 ft 453 kts 183°
2026-05-06 17:40 46.87197 1.04844 34938 ft 453 kts 183°
2026-05-06 17:40 46.80898 1.04572 34931 ft 453 kts 182°
2026-05-06 17:41 46.74592 1.04304 34935 ft 453 kts 183°
2026-05-06 17:41 46.68282 1.04037 34930 ft 453 kts 183°
2026-05-06 17:42 46.61971 1.03770 34931 ft 454 kts 183°
2026-05-06 17:42 46.55609 1.03501 34932 ft 454 kts 182°
2026-05-06 17:43 46.49302 1.04127 34928 ft 456 kts 171°
2026-05-06 17:43 46.43096 1.06157 34935 ft 457 kts 168°
2026-05-06 17:44 46.36901 1.08250 34931 ft 457 kts 168°
2026-05-06 17:44 46.30694 1.10322 34928 ft 458 kts 168°
2026-05-06 17:45 46.24441 1.12401 34928 ft 458 kts 168°
2026-05-06 17:45 46.18229 1.14462 34926 ft 458 kts 168°
2026-05-06 17:46 46.13067 1.16171 34927 ft 458 kts 168°
2026-05-06 17:46 46.06886 1.18213 34922 ft 458 kts 168°
2026-05-06 17:47 46.00685 1.20257 34918 ft 458 kts 168°
2026-05-06 17:47 45.94481 1.22298 34921 ft 457 kts 168°
2026-05-06 17:48 45.88270 1.24336 34916 ft 457 kts 168°
2026-05-06 17:48 45.82060 1.26369 34915 ft 456 kts 168°
2026-05-06 17:49 45.75837 1.28401 34913 ft 456 kts 168°
2026-05-06 17:49 45.69689 1.30404 34909 ft 456 kts 168°
2026-05-06 17:50 45.63505 1.32415 34904 ft 456 kts 168°
2026-05-06 17:50 45.57324 1.34420 34902 ft 456 kts 169°
2026-05-06 17:51 45.51141 1.36421 34896 ft 455 kts 169°
2026-05-06 17:51 45.44965 1.38416 34897 ft 455 kts 169°
2026-05-06 17:52 45.38786 1.40406 34901 ft 455 kts 169°
2026-05-06 17:52 45.32605 1.42393 34904 ft 455 kts 169°
2026-05-06 17:53 45.26380 1.44390 34905 ft 455 kts 169°
2026-05-06 17:53 45.20202 1.46367 34912 ft 455 kts 169°
2026-05-06 17:54 45.14023 1.48340 34916 ft 455 kts 169°
2026-05-06 17:54 45.07844 1.50309 34916 ft 455 kts 169°
2026-05-06 17:55 45.01663 1.52275 34915 ft 455 kts 169°
2026-05-06 17:55 44.95487 1.54234 34912 ft 455 kts 169°
2026-05-06 17:56 44.89318 1.56187 34912 ft 455 kts 169°
2026-05-06 17:56 44.83144 1.58136 34911 ft 455 kts 169°
2026-05-06 17:57 44.76964 1.60083 34917 ft 455 kts 169°
2026-05-06 17:57 44.70788 1.62025 34913 ft 455 kts 169°
2026-05-06 17:58 44.64613 1.63962 34927 ft 455 kts 169°
2026-05-06 17:58 44.58435 1.65897 34923 ft 454 kts 169°
2026-05-06 17:59 44.52260 1.67826 34931 ft 454 kts 170°
2026-05-06 17:59 44.46094 1.69747 34936 ft 454 kts 170°
2026-05-06 18:00 44.39926 1.71666 34935 ft 454 kts 170°
2026-05-06 18:00 44.33757 1.73580 34942 ft 454 kts 170°
2026-05-06 18:01 44.27567 1.75341 34940 ft 452 kts 174°
2026-05-06 18:01 44.21356 1.76704 34947 ft 452 kts 174°
2026-05-06 18:02 44.15170 1.78071 34948 ft 452 kts 174°